RAJ401 WICC-WIHH

Flight info

Callsign RAJ401
Flight time N/A
Altitude 12000
Route BND PW HLM
Aircraft B738/M-SDFGHIRWY/EB2

Departure

Time 2026-04-26 14:51
Airport Husein Sastranegara International Airport (WICC)

Arrival

Time N/A
Airport Halim Perdanakusuma International Airport (WIHH)
Time Latitude Longitude Altitude Speed Heading
2026-04-26 14:06 -6.90274 107.57803 2438 ft 0 kts 189°
2026-04-26 14:42 -6.90275 107.57803 2433 ft 1 kts 189°
2026-04-26 14:42 -6.90288 107.57798 2435 ft 3 kts 206°
2026-04-26 14:43 -6.90297 107.57782 2434 ft 3 kts 250°
2026-04-26 14:43 -6.90299 107.57758 2438 ft 5 kts 268°
2026-04-26 14:43 -6.90295 107.57722 2430 ft 6 kts 277°
2026-04-26 14:43 -6.90290 107.57679 2429 ft 7 kts 277°
2026-04-26 14:44 -6.90268 107.57667 2435 ft 4 kts 353°
2026-04-26 14:44 -6.90235 107.57673 2440 ft 5 kts 16°
2026-04-26 14:44 -6.90196 107.57686 2436 ft 7 kts 19°
2026-04-26 14:44 -6.90149 107.57703 2432 ft 7 kts 19°
2026-04-26 14:45 -6.90111 107.57708 2433 ft 2 kts 323°
2026-04-26 14:45 -6.90101 107.57697 2442 ft 4 kts 311°
2026-04-26 14:45 -6.90081 107.57665 2440 ft 5 kts 297°
2026-04-26 14:45 -6.90064 107.57629 2442 ft 6 kts 292°
2026-04-26 14:46 -6.90048 107.57582 2441 ft 8 kts 289°
2026-04-26 14:46 -6.90029 107.57523 2432 ft 10 kts 288°
2026-04-26 14:46 -6.90005 107.57450 2433 ft 12 kts 288°
2026-04-26 14:46 -6.89978 107.57367 2438 ft 13 kts 288°
2026-04-26 14:47 -6.89948 107.57279 2437 ft 13 kts 288°
2026-04-26 14:47 -6.89919 107.57192 2440 ft 13 kts 289°
2026-04-26 14:47 -6.89887 107.57101 2435 ft 14 kts 289°
2026-04-26 14:47 -6.89854 107.57003 2435 ft 14 kts 288°
2026-04-26 14:48 -6.89823 107.56915 2433 ft 13 kts 289°
2026-04-26 14:48 -6.89795 107.56834 2435 ft 12 kts 289°
2026-04-26 14:48 -6.89768 107.56754 2438 ft 12 kts 286°
2026-04-26 14:48 -6.89757 107.56685 2441 ft 7 kts 324°
2026-04-26 14:49 -6.89748 107.56697 2442 ft 1 kts 91°
2026-04-26 14:49 -6.89753 107.56703 2442 ft 2 kts 118°
2026-04-26 14:49 -6.89754 107.56715 2442 ft 3 kts 96°
2026-04-26 14:49 -6.89759 107.56737 2441 ft 4 kts 105°
2026-04-26 14:50 -6.89763 107.56754 2439 ft 5 kts 104°
2026-04-26 14:50 -6.89772 107.56788 2439 ft 7 kts 104°
2026-04-26 14:50 -6.89915 107.57178 2436 ft 106 kts 106°
2026-04-26 14:50 -6.90089 107.57702 2438 ft 151 kts 109°
2026-04-26 14:51 -6.90530 107.59070 2699 ft 188 kts 108°
2026-04-26 14:51 -6.90929 107.60211 3271 ft 186 kts 111°
2026-04-26 14:51 -6.91411 107.61259 3949 ft 178 kts 119°
2026-04-26 14:51 -6.91961 107.62255 4491 ft 181 kts 117°
2026-04-26 14:52 -6.92244 107.63019 4754 ft 187 kts 109°
2026-04-26 14:52 -6.93136 107.64262 5267 ft 191 kts 159°
2026-04-26 14:52 -6.93967 107.64367 5459 ft 191 kts 194°
2026-04-26 14:52 -6.95023 107.64007 6270 ft 156 kts 202°
2026-04-26 14:53 -6.95967 107.63690 6852 ft 156 kts 197°
2026-04-26 14:53 -6.97014 107.63326 6691 ft 193 kts 225°
2026-04-26 14:53 -6.97697 107.62260 6667 ft 201 kts 259°
2026-04-26 14:53 -6.98092 107.61161 7606 ft 163 kts 236°
2026-04-26 14:54 -6.98908 107.60448 7164 ft 165 kts 247°
2026-04-26 14:54 -6.99083 107.59571 3065 ft 160 kts 294°
2026-04-26 14:54 -6.99004 107.59367 2186 ft 0 kts 297°